Regional Weather Roundup
Issued by NWS Grand Forks, ND

Home | Current Version | Previous Version | Text Only | Print | Product List | Glossary Off
Versions: 1 2 3 4 5 6 7 8 9 10 11 12 13 14 15 16 17 18 19 20 21 22 23 24 25 26 27 28 29 30 31 32 33 34 35 36 37 38 39 40 41 42 43 44 45 46 47 48 49 50

000
ASUS43 KFGF 260110
RWRFGF
PRAIRIE TO PINES  WEATHER ROUNDUP
NATIONAL WEATHER SERVICE EASTERN NORTH DAKOTA/GRAND FORKS ND
800 PM CDT THU MAY 25 2017

 **SATELLITE DATA USED TO AUGMENT SKY COVER AT AUTOMATED STATIONS**
 *****  WEATHER ACROSS EASTERN NORTH DAKOTA  *****

CITY           SKY/WX    TMP DP  RH WIND       PRES   REMARKS
GRAND FORKS    PTSUNNY   68  51  54 SE17      29.49R
GRAND FRKS AFB FAIR      67  51  56 S15G24    29.48R
DEVILS LAKE    PTSUNNY   69  45  41 W17       29.46R
FARGO          MOCLDY    68  51  54 S18G24    29.51R
WAHPETON ARPT  CLOUDY    64  50  59 SE14      29.55R
$$

 ***** WEATHER ACROSS CENTRAL AND WESTERN NORTH DAKOTA  *****

CITY           SKY/WX    TMP DP  RH WIND       PRES   REMARKS
BISMARCK       FAIR      67  43  41 W18       29.53R
MINOT          CLOUDY    63  43  48 SW18G26   29.47R
JAMESTOWN      FAIR      69  49  48 S8        29.47R
MINOT AFB      PTSUNNY   61  45  55 W17       29.45R
GARRISON         N/A     60  42  51 W20       29.51R
WILLISTON      PTSUNNY   65  41  41 W13       29.50R
DICKINSON      FAIR      54  40  59 W21       29.57R
HETTINGER      FAIR      55  45  68 W20       29.63R
$$

 *****  OTHER AIRPORT OBSERVATIONS IN OUR AREA  *****

CITY           SKY/WX    TMP DP  RH WIND       PRES   REMARKS
WALHALLA       NOT AVBL
GRAFTON AIRPOR FAIR      66  48  52 SE20G25   29.50S
VALLEY CITY AR FAIR      68  52  56 S9        29.51R
CANDO          NOT AVBL
CAVALIER APRT  FAIR      66  48  52 SE17G23   29.46S
GWINNER        PTCLDY    70  54  56 MISG      29.50R
SHEYENNE NWR     N/A     68  52  56 S12       29.95S
ROLLA          CLOUDY    63  45  51 W17G23    29.44R
 ***** THE ABOVE OBSERVATIONS ARE NON NWS ARE NOT QUALITY
       CONTROLLED AND MAY MIS-REPORT RAIN FOR SNOW...
$$

  *****  WEATHER ACROSS NORTHERN MINNESOTA  *****

CITY           SKY/WX    TMP DP  RH WIND       PRES   REMARKS
FLAG ISLAND    CLOUDY    59  50  72 S16       29.57R
WARROAD        CLOUDY    63  48  59 SE12G17   29.58S
ROSEAU         CLOUDY    64  48  55 SE15G21   29.56S
HALLOCK        CLOUDY    64  48  55 SE20      29.50S
THF RVR FALLS  CLOUDY    63  47  55 SE14      29.56S
BAUDETTE       CLOUDY    63  46  54 SE9       29.60S
WASKISH        CLOUDY    63  48  59 SE8       29.62R
CROOKSTON      CLOUDY    64  48  55 SE14      29.53R
STEPHEN NDAWN    N/A     66  48  52 SE16        N/A
GREENBUSH NDAW   N/A     63  48  59 S17         N/A
$$
  *****  WEATHER ACROSS CENTRAL AND WEST MINNESOTA  *****

CITY           SKY/WX    TMP DP  RH WIND       PRES   REMARKS
FOSSTON        CLOUDY    63  46  55 SE12G17   29.57S
BEMIDJI        CLOUDY    59  49  69 SE8       29.61R
PARK RAPIDS    LGT RAIN  63  47  55 SE12      29.60R
ELBOW LAKE     MOCLDY    62  53  72 E9        29.57R
WADENA         MOCLDY    61  50  67 SE10      29.60R
DETROIT LAKES  MOCLDY    63  50  63 SE15      29.57S
MOORHEAD       CLOUDY    64  50  59 S15       29.53R
FERGUS FALLS   CLOUDY    64  52  63 S14       29.55R
MORRIS MN      FAIR      64  54  68 SE14      29.56R
STAPLES        DRIZZLE   59  50  72 SE5       29.62R
$$
  *****  WEATHER ELSEWHERE ACROSS MINNESOTA  *****

CITY           SKY/WX    TMP DP  RH WIND       PRES   REMARKS
DULUTH         FAIR      57  44  62 E14       29.69R
INTRNTL FALLS  MOCLDY    64  45  49 SE6       29.64R
ELY            FAIR      63  45  51 SE7       29.69R
CLOQUET        MOCLDY    55  43  62 E7        29.69R
WHEATON        FAIR      63  55  77 SE8       29.57R
BRAINERD       LGT RAIN  63  49  60 SE6       29.63S
HIBBING        MOCLDY    60  46  59 SE12      29.66R
ALEXANDRIA     MOCLDY    61  51  70 SE9       29.60S
SAINT CLOUD    CLOUDY    65  50  58 SE9       29.63S
MINNEAPOLIS    MOCLDY    69  49  48 S7        29.66R
$$

  *****  WEATHER ACROSS SOUTH DAKOTA  *****

CITY           SKY/WX    TMP DP  RH WIND       PRES   REMARKS
SIOUX FALLS    FAIR      69  53  56 S9        29.57R
BROOKINGS      FAIR      63  54  72 S8        29.57R
WATERTOWN      FAIR      62  55  77 S10       29.55S
HURON          FAIR      68  55  63 S8        29.53R
SISSETON         N/A     65  55  70 S13       29.53R
ABERDEEN       FAIR      72  48  42 NW9       29.51R
MITCHELL       FAIR      70  56  61 W6        29.56R
PIERRE         FAIR      73  33  23 W7        29.54R
MOBRIDGE       PTSUNNY   72  40  31 NW21G32   29.50R
RAPID CITY     CLOUDY    60  39  45 N26G38    29.66R
$$

  *****  SOME WEATHER IN NEARBY STATES *****

CITY           SKY/WX    TMP DP  RH WIND       PRES   REMARKS
GLASGOW MT     CLOUDY    54  39  57 NW25G32   29.62R
GREAT FALLS MT PTSUNNY   53  36  52 NW7       29.83R
CHEYENNE WY    LGT RAIN  47  41  80 W14       29.79R
SCOTTSBLUFF NE FAIR      62  48  60 E7        29.69R
OMAHA NE       MOCLDY    74  52  46 S12       29.57R
DES MOINES IA  CLOUDY    71  49  45 SE17G23   29.60F
DAVENPORT IA   FAIR      66  54  65 E8        29.70R
CHICAGO IL     FAIR      62  49  62 NE7       29.70R
EAU CLAIRE WI  FAIR      68  52  56 SW6       29.66R
LA CROSSE WI   FAIR      70  54  56 S6        29.66R
$$

  *****  SOME NATIONAL WEATHER *****

CITY           SKY/WX    TMP DP  RH WIND       PRES   REMARKS
LA GUARDIA NY  DRIZZLE   57  56  96 NE17      29.49F FOG
RALEIGH NC     MOCLDY    62  59  90 SW9       29.66R
ATLANTA GA     FAIR      66  51  58 W7        29.86R
NEW ORLEANS LA FAIR      77  61  57 SW6       29.87R
OKLAHOMA CITY  MOCLDY    82  61  48 S14       29.51R
ALBUQUERQUE NM PTSUNNY   83  -1   4 W25G40    29.77R
SALT LAKE CITY FAIR      69  25  19 N9        29.71F
LOS ANGELES CA FAIR      64  51  62 W13       29.86S
BOISE ID       FAIR      64  31  28 W9        29.71F
SEATTLE WA     FAIR      70  46  42 N6        29.84S
$$

*** WEATHER ACROSS MANITOBA...SASKATCHEWAN AND ONTARIO ***
                ***ONTARIO***

CITY           SKY/WX    TMP DP  RH WIND       PRES   REMARKS
GERALDTON      PTCLDY    66  46  48 E6        29.73S
THUNDER BAY    PTCLDY    63  41  45 SE3       29.72S
SIOUX LOOKOUT  MOCLDY    68  41  37 S7        29.64R
TORONTO        LGT RAIN  54  52  94 E14G22    29.53R FOG
BIG TROUT LK   CLEAR     64  30  27 SE6       29.68S
PICKLE LAKE    PTCLDY    68  37  32 S8        29.68R
DRYDEN         MOCLDY    66  45  45 S12       29.64R
KENORA         MOCLDY    64  45  48 S14G21    29.60R
$$
                *** MANITOBA***

CITY           SKY/WX    TMP DP  RH WIND       PRES   REMARKS
BRANDON        PTSUNNY   63  50  63 SW10      29.38R
DAUPHIN        CLOUDY    61  52  72 SE16G25   29.34S
ISLAND LAKE    NOT AVBL
PILOT MOUND      N/A     63  48  59 S15         N/A
THE PAS        CLOUDY    54  48  82 SE8       29.41S
THOMPSON       NOT AVBL
WINNIPEG       PTSUNNY   63  48  59 SE21G26   29.49F
LYNN LAKE      LGT RAIN  52  48  87 SE8       29.57R
CHURCHILL      CLOUDY    41  37  87 E12       29.67S
GILLAM         CLOUDY    70  28  21 SE5       29.59R
$$
                ***SASKATCHEWAN***

CITY           SKY/WX    TMP DP  RH WIND       PRES   REMARKS
ESTEVAN        PTSUNNY   57  43  58 W18G25    29.44R
KINDERSLEY     LGT RAIN  48  43  81 N25G37    29.62R
LLOYDMINSTER   CLOUDY    54  43  66 N13       29.62R
PRINCE ALBERT  CLOUDY    54  46  76 NE6       29.40R
REGINA         PTSUNNY   55  43  62 NW14G20   29.42R
YORKTON          N/A     54  45  71 SW8       29.31R
N. BATTLEFORD  CLOUDY    48  46  93 NW21G36   29.55R
LA RONGE       CLOUDY    55  52  88 N8        29.43R
SASKATOON      CLOUDY    50  46  87 NW24G30   29.44R
SWIFT CURRENT  CLOUDY    46  43  87 NW30G43   29.56R
$$
NOTE: THESE ARE AUTOMATED STATIONS WITH LIMITED QUALITY CONTROL
      "FAIR" INDICATES FEW OR NO CLOUDS BELOW 12,000 FEET WITH NO
      SIGNIFICANT WEATHER AND/OR OBSTRUCTIONS TO VISIBILITY.
      SKY/WX - SKY CONDITION AND SIGNIFICANT WEATHER.
      TMP - AIR TEMPERATURE.    DP   - DEWPOINT TEMPERATURE.
      RH  - RELATIVE HUMIDITY.  PRES - PRESSURE.
      HX  - HEAT INDEX.         WCI  - WIND CHILL INDEX.
$



USA.gov is the U.S. government's official web portal to all federal, state and local government web resources and services.